FW4770 Weather Reports


time (UTC)temp
F
wind
direction
speed
knots
gust
knots
rain 1hr
in
rain 24hr
in
rain mn
in
humidity
%
barometer
mb
20210920051327 77 197 7.0 13.0 0.00 0.00 0.00 68 1009.2
20210920050814 77 165 7.8 11.3 0.00 0.00 0.00 68 1009.2
20210920050322 77 188 7.0 9.6 0.00 0.00 0.00 68 1009.3
20210920045822 77 182 7.0 11.3 0.00 0.00 0.00 68 1009.4
20210920045310 77 153 7.0 11.3 0.00 0.00 0.00 67 1009.4
20210920044818 77 175 7.0 13.0 0.00 0.00 0.00 67 1009.4
20210920044320 78 186 5.2 13.0 0.00 0.00 0.00 67 1009.5
20210920043829 78 184 7.0 11.3 0.00 0.00 0.00 67 1009.5
20210920043317 78 153 7.8 11.3 0.00 0.00 0.00 67 1009.5
20210920042825 78 150 7.0 13.9 0.00 0.00 0.00 66 1009.5
20210920042333 78 140 7.0 15.6 0.00 0.00 0.00 66 1009.5
20210920041814 78 140 7.8 15.6 0.00 0.00 0.00 66 1009.5
20210920041323 78 161 9.6 15.6 0.00 0.00 0.00 66 1009.5
20210920040832 78 145 9.6 14.8 0.00 0.00 0.00 66 1009.5
20210920040314 78 198 7.8 13.0 0.00 0.00 0.00 66 1009.6
20210920035822 78 188 6.1 13.9 0.00 0.00 0.00 66 1009.6
20210920035310 78 159 7.8 13.9 0.00 0.00 0.00 65 1009.6
20210920034817 78 161 7.8 12.2 0.00 0.00 0.00 65 1009.7
20210920034320 79 178 6.1 16.5 0.00 0.00 0.00 65 1009.7
20210920033829 79 165 7.8 16.5 0.00 0.00 0.00 64 1009.7
20210920033318 79 115 9.6 15.6 0.00 0.00 0.00 64 1009.8
20210920032820 79 167 7.8 15.6 0.00 0.00 0.00 64 1009.7
20210920032329 79 146 7.8 12.2 0.00 0.00 0.00 64 1009.8
20210920031816 79 146 7.0 11.3 0.00 0.00 0.00 64 1009.8
20210920031319 79 172 7.8 13.0 0.00 0.00 0.00 64 1009.8
20210920030812 79 146 7.0 13.0 0.00 0.00 0.00 64 1009.8
20210920030320 79 133 7.0 12.2 0.00 0.00 0.00 64 1009.8
20210920025831 79 192 6.1 13.0 0.00 0.00 0.00 64 1009.8
20210920025313 79 147 7.0 13.0 0.00 0.00 0.00 63 1009.8
20210920024820 79 160 7.0 14.8 0.00 0.00 0.00 63 1009.8
20210920024327 80 164 7.8 13.9 0.00 0.00 0.00 63 1009.8
20210920023829 80 143 7.8 12.2 0.00 0.00 0.00 63 1009.8
20210920023318 80 162 8.7 12.2 0.00 0.00 0.00 63 1009.8
20210920022826 80 148 7.8 12.2 0.00 0.00 0.00 63 1009.8
20210920022329 80 161 5.2 12.2 0.00 0.00 0.00 63 1009.8
20210920021818 80 114 7.0 10.4 0.00 0.00 0.00 63 1009.8
20210920021325 80 168 7.8 12.2 0.00 0.00 0.00 63 1009.8
20210920020833 80 144 7.8 13.0 0.00 0.00 0.00 62 1009.8
20210920020314 80 157 7.0 13.0 0.00 0.00 0.00 62 1009.8
20210920015821 81 143 7.0 11.3 0.00 0.00 0.00 62 1009.8
20210920015330 81 137 7.8 12.2 0.00 0.00 0.00 62 1009.8
20210920014813 81 155 7.8 10.4 0.00 0.00 0.00 61 1009.9
20210920014321 81 142 7.8 9.6 0.00 0.00 0.00 61 1009.9
20210920013830 81 147 4.3 12.2 0.00 0.00 0.00 61 1009.9
20210920013312 81 142 7.0 12.2 0.00 0.00 0.00 61 1009.8
20210920012822 81 141 7.0 10.4 0.00 0.00 0.00 61 1009.8
20210920012330 81 155 6.1 8.7 0.00 0.00 0.00 61 1009.8
20210920011811 81 117 6.1 8.7 0.00 0.00 0.00 60 1009.8
20210920011320 81 146 6.1 8.7 0.00 0.00 0.00 60 1009.7
20210920010828 82 160 5.2 8.7 0.00 0.00 0.00 60 1009.8
20210920010337 82 152 4.3 8.7 0.00 0.00 0.00 59 1009.7
20210920005818 82 171 4.3 8.7 0.00 0.00 0.00 59 1009.6
20210920005326 82 145 5.2 11.3 0.00 0.00 0.00 59 1009.6
20210920004810 82 147 6.1 11.3 0.00 0.00 0.00 58 1009.6
20210920004319 83 165 5.2 8.7 0.00 0.00 0.00 58 1009.6
20210920003821 83 141 6.1 11.3 0.00 0.00 0.00 58 1009.5
20210920003310 83 168 6.1 11.3 0.00 0.00 0.00 57 1009.5
20210920002816 83 163 7.0 11.3 0.00 0.00 0.00 57 1009.4
20210920002319 83 157 4.3 9.6 0.00 0.00 0.00 57 1009.5
20210920001828 83 134 5.2 9.6 0.00 0.00 0.00 56 1009.5
20210920001317 84 142 5.2 9.6 0.00 0.00 0.00 56 1009.5
20210920000820 84 166 5.2 8.7 0.00 0.00 0.00 56 1009.5
20210920000330 84 158 3.5 8.7 0.00 0.00 0.00 56 1009.5
20210919235818 84 184 6.1 11.3 0.00 0.00 0.00 55 1009.3
20210919235327 85 154 7.0 12.2 0.00 0.00 0.00 55 1009.4
20210919234812 85 144 7.8 12.2 0.00 0.00 0.00 54 1009.4
20210919234320 85 175 4.3 13.9 0.00 0.00 0.00 55 1009.3
20210919233829 85 156 8.7 13.9 0.00 0.00 0.00 54 1009.3
20210919233327 85 173 6.1 11.3 0.00 0.00 0.00 54 1009.3
20210919232815 85 151 7.8 10.4 0.00 0.00 0.00 54 1009.3
20210919232324 85 134 6.1 13.0 0.00 0.00 0.00 53 1009.5
20210919231831 85 152 7.8 13.0 0.00 0.00 0.00 52 1009.3
20210919231313 86 169 7.0 15.6 0.00 0.00 0.00 52 1009.4
20210919230822 86 159 7.8 15.6 0.00 0.00 0.00 52 1009.2
20210919230331 86 134 7.8 13.0 0.00 0.00 0.00 52 1009.2
20210919225814 86 175 8.7 15.6 0.00 0.00 0.00 52 1009.2
20210919225321 87 140 7.0 15.6 0.00 0.00 0.00 51 1009.1
20210919224810 87 177 9.6 17.4 0.00 0.00 0.00 51 1009.1
20210919224311 87 143 8.7 18.2 0.00 0.00 0.00 50 1009.1
20210919223820 87 158 10.4 22.6 0.00 0.00 0.00 50 1009.0
20210919223328 87 173 10.4 22.6 0.00 0.00 0.00 49 1009.0
20210919222817 87 210 9.6 19.1 0.00 0.00 0.00 48 1009.0
20210919222320 88 169 11.3 21.7 0.00 0.00 0.00 48 1008.9
20210919221828 87 171 13.9 21.7 0.00 0.00 0.00 48 1009.0
20210919221316 87 168 8.7 21.7 0.00 0.00 0.00 49 1009.2
20210919220819 88 143 11.3 21.7 0.00 0.00 0.00 48 1009.2
20210919220328 88 171 13.0 26.1 0.00 0.00 0.00 48 1009.2
20210919215816 88 163 12.2 22.6 0.00 0.00 0.00 49 1009.3
20210919215324 88 169 11.3 20.0 0.00 0.00 0.00 48 1009.2
20210919214827 88 165 12.2 21.7 0.00 0.00 0.00 48 1009.2
20210919214313 88 180 9.6 21.7 0.00 0.00 0.00 49 1009.2
20210919213821 88 194 11.3 26.1 0.00 0.00 0.00 49 1009.3
20210919213312 88 150 14.8 26.1 0.00 0.00 0.00 48 1009.2
20210919212813 88 206 13.0 20.0 0.00 0.00 0.00 50 1009.5
20210919212321 88 153 10.4 16.5 0.00 0.00 0.00 49 1009.5
20210919211829 88 173 11.3 18.2 0.00 0.00 0.00 49 1009.6
20210919211317 88 158 11.3 18.2 0.00 0.00 0.00 48 1009.6
20210919210829 88 163 11.3 18.2 0.00 0.00 0.00 48 1009.8
20210919210309 88 197 8.7 20.0 0.00 0.00 0.00 49 1009.9
20210919205818 88 248 9.6 20.0 0.00 0.00 0.00 51 1010.0
20210919205324 88 132 9.6 17.4 0.00 0.00 0.00 52 1009.9
20210919204825 88 209 12.2 19.1 0.00 0.00 0.00 50 1009.9
20210919204312 88 165 10.4 16.5 0.00 0.00 0.00 51 1010.0
20210919203820 88 182 8.7 13.9 0.00 0.00 0.00 50 1010.1
20210919203331 88 186 6.1 24.3 0.00 0.00 0.00 51 1010.2
20210919202815 88 180 11.3 24.3 0.00 0.00 0.00 50 1010.3
20210919202323 88 148 12.2 21.7 0.00 0.00 0.00 50 1010.2
20210919201814 88 148 7.0 16.5 0.00 0.00 0.00 52 1010.3
20210919201314 88 144 10.4 18.2 0.00 0.00 0.00 53 1010.4
20210919200821 88 135 10.4 18.2 0.00 0.00 0.00 52 1010.3
20210919200309 88 154 9.6 17.4 0.00 0.00 0.00 52 1010.4
20210919195818 88 159 10.4 19.1 0.00 0.00 0.00 51 1010.3
20210919195320 88 146 8.7 20.0 0.00 0.00 0.00 51 1010.5
20210919194828 87 173 13.9 20.0 0.00 0.00 0.00 50 1010.5
20210919194317 88 165 12.2 22.6 0.00 0.00 0.00 51 1010.3
20210919193819 88 187 9.6 22.6 0.00 0.00 0.00 50 1010.6
20210919193327 88 155 12.2 19.1 0.00 0.00 0.00 50 1010.4
20210919192815 88 196 9.6 20.0 0.00 0.00 0.00 51 1010.5
20210919192315 88 148 7.0 15.6 0.00 0.00 0.00 52 1010.6
20210919191823 88 153 10.4 17.4 0.00 0.00 0.00 52 1010.6
20210919191310 87 190 9.6 17.4 0.00 0.00 0.00 53 1010.7
20210919190819 86 161 10.4 16.5 0.00 0.00 0.00 55 1010.7
20210919190322 86 150 7.8 19.1 0.00 0.00 0.00 57 1010.8
20210919185810 86 161 9.6 20.9 0.00 0.00 0.00 54 1010.9
20210919185318 86 179 10.4 20.9 0.00 0.00 0.00 53 1011.0
20210919184821 86 194 8.7 16.5 0.00 0.00 0.00 54 1011.1
20210919184328 87 138 9.6 20.0 0.00 0.00 0.00 54 1011.1
20210919183815 87 104 11.3 16.5 0.00 0.00 0.00 55 1011.2
20210919183323 87 140 8.7 17.4 0.00 0.00 0.00 54 1011.3
20210919182833 86 148 9.6 18.2 0.00 0.00 0.00 55 1011.3
20210919182314 87 155 10.4 20.9 0.00 0.00 0.00 54 1011.4
20210919181821 86 190 7.8 19.1 0.00 0.00 0.00 57 1011.6
20210919181325 86 213 7.8 15.6 0.00 0.00 0.00 57 1011.5
20210919180833 85 202 7.8 15.6 0.00 0.00 0.00 56 1011.7
20210919180314 85 248 8.7 19.1 0.00 0.00 0.00 57 1011.7
20210919175822 85 193 10.4 19.1 0.00 0.00 0.00 58 1011.8
20210919175328 85 163 11.3 15.6 0.00 0.00 0.00 58 1011.8
20210919174834 84 161 8.7 15.6 0.00 0.00 0.00 61 1011.8
20210919174315 84 164 9.6 14.8 0.00 0.00 0.00 60 1011.9
20210919173822 84 180 7.0 16.5 0.00 0.00 0.00 62 1012.0
20210919173313 84 221 7.8 16.5 0.00 0.00 0.00 61 1012.0
20210919172814 84 189 7.8 13.0 0.00 0.00 0.00 61 1012.1
20210919172323 84 188 9.6 17.4 0.00 0.00 0.00 61 1012.1
20210919171809 84 166 8.7 17.4 0.00 0.00 0.00 61 1012.1
20210919171320 84 167 8.7 13.9 0.00 0.00 0.00 61 1012.1
20210919170818 83 142 6.1 10.4 0.00 0.00 0.00 65 1012.2
20210919170309 82 151 5.2 11.3 0.00 0.00 0.00 64 1012.2
20210919165817 82 147 8.7 12.2 0.00 0.00 0.00 64 1012.3
20210919165320 82 175 7.0 13.0 0.00 0.00 0.00 64 1012.4
20210919164829 82 146 7.0 17.4 0.00 0.00 0.00 65 1012.4
20210919164316 82 197 9.6 17.4 0.00 0.00 0.00 64 1012.6
20210919163819 82 153 9.6 14.8 0.00 0.00 0.00 64 1012.6
20210919163328 82 162 9.6 14.8 0.00 0.00 0.00 65 1012.6
20210919162813 81 131 8.7 14.8 0.00 0.00 0.00 66 1012.8
20210919162321 81 124 7.0 16.5 0.00 0.00 0.00 67 1012.9
20210919161823 81 128 10.4 16.5 0.00 0.00 0.00 66 1012.9
20210919161311 81 197 7.0 12.2 0.00 0.00 0.00 66 1013.0
20210919160816 81 186 7.0 16.5 0.00 0.00 0.00 68 1013.1
20210919160324 80 184 10.4 18.2 0.00 0.00 0.00 68 1013.0
20210919155827 80 135 5.2 12.2 0.00 0.00 0.00 69 1013.1
20210919155314 79 149 6.1 12.2 0.00 0.00 0.00 69 1013.2
20210919154821 79 167 7.8 14.8 0.00 0.00 0.00 70 1013.3
20210919154332 79 159 8.7 14.8 0.00 0.00 0.00 70 1013.3
20210919153810 79 167 7.8 13.9 0.00 0.00 0.00 70 1013.4
20210919153319 78 157 8.7 13.9 0.00 0.00 0.00 71 1013.4
20210919152826 78 132 5.2 13.0 0.00 0.00 0.00 73 1013.5
20210919152328 77 182 7.8 13.0 0.00 0.00 0.00 73 1013.5
20210919151815 77 185 5.2 11.3 0.00 0.00 0.00 73 1013.6
20210919151324 76 154 7.0 11.3 0.00 0.00 0.00 75 1013.6
20210919150833 76 168 6.1 11.3 0.00 0.00 0.00 75 1013.7
20210919150312 76 180 7.8 11.3 0.00 0.00 0.00 75 1013.6
20210919145820 75 180 6.1 10.4 0.00 0.00 0.00 76 1013.6
20210919145327 75 148 4.3 11.3 0.00 0.00 0.00 77 1013.8
20210919144810 74 187 5.2 8.7 0.00 0.00 0.00 77 1013.8
20210919144317 74 154 5.2 10.4 0.00 0.00 0.00 77 1013.8
20210919143825 74 202 6.1 12.2 0.00 0.00 0.00 77 1013.8
20210919143332 74 167 7.0 12.2 0.00 0.00 0.00 77 1013.7
20210919142816 73 193 7.0 10.4 0.00 0.00 0.00 78 1013.7
20210919142323 73 138 7.8 13.0 0.00 0.00 0.00 78 1013.6
20210919141809 73 146 8.7 13.0 0.00 0.00 0.00 78 1013.7
20210919141318 73 154 7.8 10.4 0.00 0.00 0.00 78 1013.8
20210919140821 72 170 7.0 9.6 0.00 0.00 0.00 79 1013.7
20210919140309 72 103 5.2 10.4 0.00 0.00 0.00 80 1013.8
20210919135818 72 160 7.0 10.4 0.00 0.00 0.00 80 1013.8
20210919135321 71 152 6.1 9.6 0.00 0.00 0.00 80 1013.8
20210919134828 71 155 5.2 9.6 0.00 0.00 0.00 81 1013.9
20210919134316 71 145 5.2 10.4 0.00 0.00 0.00 81 1014.0
20210919133818 70 155 6.1 10.4 0.00 0.00 0.00 81 1013.9
20210919133324 70 134 4.3 7.8 0.00 0.00 0.00 82 1013.9
20210919132816 70 132 5.2 8.7 0.00 0.00 0.00 82 1014.0
20210919132324 70 120 5.2 8.7 0.00 0.00 0.00 82 1014.0
20210919131826 69 123 5.2 8.7 0.00 0.00 0.00 83 1014.2
20210919131314 69 136 6.1 8.7 0.00 0.00 0.00 83 1014.1
20210919130823 69 142 6.1 9.6 0.00 0.00 0.00 83 1014.1
20210919130325 68 132 6.1 9.6 0.00 0.00 0.00 83 1014.1
20210919125811 68 116 4.3 8.7 0.00 0.00 0.00 84 1014.3
20210919125319 68 121 3.5 8.7 0.00 0.00 0.00 84 1014.3
20210919124828 68 155 3.5 8.7 0.00 0.00 0.00 84 1014.3
20210919124329 67 182 5.2 10.4 0.00 0.00 0.00 84 1014.4
20210919123818 67 148 5.2 10.4 0.00 0.00 0.00 85 1014.3
20210919123325 67 147 7.0 9.6 0.00 0.00 0.00 85 1014.4
20210919122827 67 144 4.3 9.6 0.00 0.00 0.00 85 1014.5
20210919122315 67 141 4.3 9.6 0.00 0.00 0.00 85 1014.5
20210919121823 67 166 6.1 9.6 0.00 0.00 0.00 85 1014.3
20210919121331 67 113 6.1 8.7 0.00 0.00 0.00 85 1014.4
20210919120813 67 131 5.2 8.7 0.00 0.00 0.00 84 1014.4
20210919120319 67 133 5.2 8.7 0.00 0.00 0.00 84 1014.3
20210919115827 67 117 5.2 8.7 0.00 0.00 0.00 84 1014.3
20210919115309 67 134 4.3 8.7 0.00 0.00 0.00 84 1014.4
20210919114816 67 159 5.2 7.0 0.00 0.00 0.00 84 1014.4
20210919114325 67 140 3.5 8.7 0.00 0.00 0.00 83 1014.4
20210919113834 67 145 5.2 8.7 0.00 0.00 0.00 83 1014.4
20210919113314 67 140 5.2 7.0 0.00 0.00 0.00 83 1014.4
20210919112824 67 150 3.5 7.0 0.00 0.00 0.00 83 1014.5
20210919112312 67 132 4.3 7.0 0.00 0.00 0.00 82 1014.5
20210919111815 67 150 4.3 9.6 0.00 0.00 0.00 82 1014.4
20210919111324 68 149 7.0 9.6 0.00 0.00 0.00 82 1014.4
20210919110813 68 153 5.2 9.6 0.00 0.00 0.00 82 1014.5
20210919110322 68 150 6.1 10.4 0.00 0.00 0.00 82 1014.5
20210919105829 68 126 6.1 10.4 0.00 0.00 0.00 82 1014.6
20210919105312 68 155 6.1 9.6 0.00 0.00 0.00 82 1014.5
20210919104819 68 138 6.1 9.6 0.00 0.00 0.00 81 1014.5
20210919104326 68 136 6.1 11.3 0.00 0.00 0.00 81 1014.5
20210919103809 67 138 7.0 12.2 0.00 0.00 0.00 81 1014.5
20210919103319 67 148 7.0 12.2 0.00 0.00 0.00 81 1014.5
20210919102827 67 153 5.2 11.3 0.00 0.00 0.00 81 1014.5
20210919102309 67 165 5.2 8.7 0.00 0.00 0.00 81 1014.5
20210919101818 67 154 6.1 10.4 0.00 0.00 0.00 81 1014.6
20210919101322 67 162 6.1 10.4 0.00 0.00 0.00 80 1014.5
20210919100814 67 165 5.2 8.7 0.00 0.00 0.00 80 1014.5
20210919100314 67 131 4.3 8.7 0.00 0.00 0.00 80 1014.6
20210919095822 67 157 6.1 9.6 0.00 0.00 0.00 80 1014.6
20210919095328 67 153 4.3 9.6 0.00 0.00 0.00 79 1014.7
20210919094816 67 173 5.2 10.4 0.00 0.00 0.00 79 1014.7
20210919094318 67 139 6.1 10.4 0.00 0.00 0.00 79 1014.7
20210919093826 68 161 4.3 7.8 0.00 0.00 0.00 78 1014.8
20210919093314 68 132 3.5 10.4 0.00 0.00 0.00 78 1014.8
20210919092822 68 169 5.2 10.4 0.00 0.00 0.00 78 1014.8
20210919092323 68 146 4.3 9.6 0.00 0.00 0.00 78 1014.8
20210919091810 68 142 6.1 12.2 0.00 0.00 0.00 78 1014.7
20210919091319 68 149 6.1 12.2 0.00 0.00 0.00 78 1014.7
20210919090821 68 151 4.3 9.6 0.00 0.00 0.00 77 1014.7
20210919090311 68 124 5.2 10.4 0.00 0.00 0.00 77 1014.7
20210919085816 68 128 5.2 9.6 0.00 0.00 0.00 77 1014.8
20210919085321 68 146 5.2 9.6 0.00 0.00 0.00 77 1014.9
20210919084824 68 134 6.1 10.4 0.00 0.00 0.00 76 1014.9
20210919084312 68 140 5.2 10.4 0.00 0.00 0.00 76 1015.0
20210919083822 68 138 6.1 8.7 0.00 0.00 0.00 76 1015.0
20210919083322 68 136 5.2 9.6 0.00 0.00 0.00 75 1015.1
20210919082809 68 128 5.2 10.4 0.00 0.00 0.00 75 1015.2
20210919082317 68 152 7.0 12.2 0.00 0.00 0.00 75 1015.3
20210919081819 68 145 7.8 12.2 0.00 0.00 0.00 75 1015.4
20210919081327 68 104 5.2 13.0 0.00 0.00 0.00 75 1015.5
20210919080816 68 147 7.0 13.0 0.00 0.00 0.00 74 1015.5
20210919080326 68 128 7.0 11.3 0.00 0.00 0.00 74 1015.5
20210919075826 68 116 6.1 10.4 0.00 0.00 0.00 74 1015.5
20210919075315 68 148 7.0 10.4 0.00 0.00 0.00 74 1015.5
20210919074824 68 126 4.3 12.2 0.00 0.00 0.00 73 1015.5
20210919074331 68 133 6.1 12.2 0.00 0.00 0.00 73 1015.5
20210919073814 68 144 6.1 10.4 0.00 0.00 0.00 73 1015.5
20210919073322 68 150 6.1 10.4 0.00 0.00 0.00 72 1015.7
20210919072825 68 147 7.0 10.4 0.00 0.00 0.00 72 1015.8
20210919072334 68 148 6.1 10.4 0.00 0.00 0.00 72 1015.6
20210919071815 68 159 6.1 11.3 0.00 0.00 0.00 72 1015.7
20210919071321 68 159 7.0 11.3 0.00 0.00 0.00 71 1015.7
20210919070810 69 107 7.0 11.3 0.00 0.00 0.00 71 1015.7
20210919070312 69 142 6.1 11.3 0.00 0.00 0.00 71 1015.7
20210919065817 69 153 7.0 11.3 0.00 0.00 0.00 71 1015.6
20210919065325 69 127 7.0 10.4 0.00 0.00 0.00 71 1015.8
20210919064831 69 140 7.8 13.0 0.00 0.00 0.00 70 1015.7
20210919064314 69 159 6.1 13.0 0.00 0.00 0.00 70 1015.8
20210919063818 69 156 6.1 13.0 0.00 0.00 0.00 69 1015.7
20210919063311 69 159 7.8 13.0 0.00 0.00 0.00 70 1015.7
20210919062819 69 181 4.3 9.6 0.00 0.00 0.00 69 1015.7
20210919062322 69 138 6.1 13.0 0.00 0.00 0.00 69 1015.8
20210919061810 69 150 7.0 13.0 0.00 0.00 0.00 69 1015.7
20210919061316 69 140 6.1 9.6 0.00 0.00 0.00 69 1015.8
20210919060818 69 152 6.1 10.4 0.00 0.00 0.00 68 1015.8
20210919060323 69 162 7.0 12.2 0.00 0.00 0.00 68 1015.9
20210919055831 69 153 7.0 14.8 0.00 0.00 0.00 67 1015.8
20210919055340 68 161 6.1 13.9 0.00 0.00 0.00 67 1015.8
20210919054822 68 157 6.1 13.0 0.00 0.00 0.00 67 1015.9
20210919054330 68 150 7.0 11.3 0.00 0.00 0.00 67 1015.8
20210919053839 69 138 7.0 13.0 0.00 0.00 0.00 66 1015.9
20210919053347 69 152 7.0 13.9 0.00 0.00 0.00 66 1015.9
20210919052830 69 132 6.1 13.9 0.00 0.00 0.00 66 1015.9
20210919052338 69 131 7.0 13.0 0.00 0.00 0.00 66 1015.9
20210919051846 69 136 6.1 14.8 0.00 0.00 0.00 65 1015.9